Vertical_Velocity
2 -6 -4 12 10 16 5 -9 0 0 5 -6 -10 -0 0 -8 -6 -1 -1 -6 -4 1 10 -1 2 -0 0 -0 -0 -1 -4 -5 -3 3 4 5 -5 1 -3 -3 -2 -3 -5 2
-7 4 -4 -4 -1 4 2 -3 -3 -5 -1 -2 2 3 4 1 0 -2 -2 0 -1 1 8 -3 2 1 -0 -1 0 0 -1 -3 -2 -1 -0 1 -2 3 -2 -2 -7 -2 -1 -6
4 -2 8 8 13 21 -22 -3 -6 3 4 -5 2 -5 -3 1 -2 -2 1 -0 1 -1 7 4 2 -0 1 -1 -1 -0 -1 -1 -1 -2 -4 -4 4 4 1 5 -3 -1 2 3
-13 5 5 7 10 5 -7 1 -4 -4 -1 12 5 -4 -1 2 0 -2 -1 -0 -3 -2 -3 3 3 -1 3 2 2 0 -1 -1 -2 -2 -0 -0 -2 -3 1 3 2 1 -3 1
7 8 11 6 -2 -5 4 7 10 -0 2 2 -7 1 -6 1 -6 6 -1 -1 -2 -5 -0 -1 4 0 0 1 1 2 -2 1 0 -1 -1 0 0 -1 -1 -2 2 2 2 1
6 1 -6 -10 9 9 1 5 9 6 -5 -10 4 -10 -9 -2 -10 10 -3 2 -2 -2 -2 0 -0 -2 -5 -2 -3 2 -0 -3 -1 1 0 1 0 1 -1 0 2 1 2 -0
9 -0 -2 7 8 9 -1 6 6 2 -18 2 7 -9 -12 -11 -3 -1 -4 0 -2 -3 -2 -3 -5 3 1 -5 -2 -2 -0 3 3 -0 -1 -0 1 1 2 1 -1 -0 1 1
7 -6 4 9 1 16 2 16 5 -7 -9 10 2 -21 -7 -5 -6 3 -4 2 -0 -5 -5 -3 -4 -4 4 1 -3 -4 -2 -2 -2 -1 -1 -4 -1 -0 -1 -1 -1 1 1 1
8 -16 -10 7 -0 4 6 -16 -2 2 6 5 -7 -9 -6 -7 -4 -4 -5 -2 -1 -1 -1 -3 5 -3 -6 -1 -1 1 -3 -4 -5 -3 -3 -2 -2 -4 -5 -6 -5 -4 -4 -3
-5 -8 4 -1 12 9 -7 12 -8 1 -6 -2 1 -6 -10 6 1 -5 -2 -2 -2 -4 -4 -1 -1 2 -0 -1 -2 -3 -3 -2 -2 -1 -2 -4 -4 -5 -3 -3 -4 -7 -7 -5
-8 6 4 2 -9 6 2 -1 0 11 -3 3 1 -9 2 -1 -0 3 -3 -0 -2 -3 -1 2 1 -0 1 -6 -1 -1 -2 -2 -2 -3 -4 -6 -7 -4 -3 -3 -6 -5 -8 -7
-2 -4 1 34 4 -13 -3 3 1 2 -2 10 -20 -5 -5 -0 5 -1 3 -3 0 -3 -3 -2 -2 0 0 -1 -3 -1 -3 -2 -2 -0 -2 -3 -3 -4 -4 -7 -7 -6 -6 -9
-3 -7 4 -9 -6 -13 -3 7 8 -5 1 1 -1 -14 12 1 -1 0 1 -2 -4 -3 -0 -0 -1 -3 -1 -2 -3 -3 -4 -4 -4 -3 -0 -2 -2 -1 -3 -3 -4 -7 -8 -9
-2 -4 2 9 25 7 -1 5 3 -1 4 11 -7 -0 -3 2 2 -2 -3 -3 -2 -1 -2 -0 -1 -0 -1 -2 -2 -2 -3 -3 -3 -4 -4 -3 -4 -3 -2 -2 -3 -2 -3 -3
-1 3 5 -4 -3 1 7 1 -3 2 9 -2 5 0 -2 -3 -1 -1 -2 -1 -3 -4 -1 -0 -0 -1 -2 -2 -1 -2 -0 -2 -1 -3 -2 -2 -3 -2 -2 -1 -3 -5 -4 -5
4 8 -6 -1 2 8 1 1 0 -1 -0 -0 -8 -5 1 1 -3 0 0 -2 -1 -3 0 2 -0 -1 -4 -2 -3 -2 -3 -3 -2 -3 -3 -2 -1 -2 -2 -2 1 2 -1 -3
3 8 -6 0 5 0 -17 5 9 6 -1 5 -9 -7 -0 1 1 -2 2 2 -2 0 2 -2 0 -3 -3 0 -4 -3 -3 -3 -1 -1 -3 -3 -3 -3 -1 -2 -3 -1 1 -0
5 4 7 4 -3 -19 22 -3 6 4 -2 0 -2 -14 -4 -1 -1 -2 -1 -8 1 0 -4 0 -3 -1 -0 -3 -3 -3 -2 -2 -3 -2 -2 -4 -4 -4 -4 -3 -2 -2 -3 -1
2 1 -4 -6 8 -3 -5 -4 -7 1 11 3 2 -3 -2 -4 -5 4 -4 1 -3 -3 1 -0 -3 -0 1 -2 -2 -2 -2 -3 -3 -2 -2 -3 -3 -2 -3 -2 -1 -3 -3 -4
2 -4 -2 1 -8 -17 27 6 3 2 -8 -1 -1 -4 1 0 2 3 -2 -2 -1 -1 -1 -1 -2 -1 -0 -3 -3 -1 -1 -3 -3 -2 -2 -2 -4 -3 -3 -5 -4 -2 -7 -7
3 -5 -4 3 -4 -6 -3 8 0 -19 20 -0 -3 -1 -2 -3 -3 3 -3 -2 -1 -3 1 -1 0 -0 1 -1 -1 0 -1 -2 -2 -2 -2 -2 -4 -4 -3 -5 -6 -3 -2 -7
9 -6 -3 -4 -11 -21 -4 -1 -14 25 7 0 -3 -5 -1 2 2 0 -3 0 -3 -4 -2 -2 -4 0 -0 0 -2 -2 -2 -2 -2 -3 -3 -3 -4 -5 -4 -1 -5 -5 -4 -3
-27 -15 7 5 23 9 15 16 -4 2 4 -4 1 -3 -0 0 0 -0 -3 -1 -0 -2 -1 -2 -3 -0 -3 -1 -1 -0 -0 -2 -3 -3 -1 -2 -3 -5 -8 -4 -3 -6 -3 -5
-14 0 -15 2 2 -1 11 -0 5 3 1 0 -2 -6 1 -2 -0 -2 -1 -4 -4 -4 -3 -3 -1 -0 -0 1 -0 -1 -0 -1 -1 -1 -2 -2 0 -1 -5 -9 -5 -8 -6 -3
21 16 2 9 3 -6 -8 -7 3 -1 -2 2 1 -2 -8 -5 -1 -3 -3 -1 -2 -2 -1 -1 -2 -0 -0 -0 -0 -1 -1 -2 -2 -1 -1 -2 -3 -2 -1 -10 -6 -1 -12 -16
-10 11 -16 -4 10 13 21 5 3 8 7 2 0 1 1 -2 -0 -2 -3 -2 -1 -4 -4 -3 -4 -2 -1 -2 -1 -1 -1 -1 -2 -2 -3 -2 -3 -3 -4 4 6 -14 -9 -9
Height
5785 5790 5796 5803 5808 5812 5814 5816 5817 5819 5824 5830 5832 5833 5837 5840 5843 5845 5847 5849 5852 5855 5858 5857 5858 5858 5858 5857 5857 5858 5859 5860 5860 5861 5861 5861 5860 5861 5861 5861 5861 5861 5861 5863
5780 5786 5790 5794 5799 5803 5808 5808 5807 5810 5820 5824 5826 5828 5830 5833 5835 5837 5839 5842 5844 5847 5851 5849 5849 5850 5850 5850 5849 5849 5849 5850 5851 5851 5852 5852 5851 5851 5851 5851 5850 5850 5851 5851
5772 5779 5783 5788 5794 5797 5798 5803 5802 5807 5812 5816 5818 5821 5822 5824 5827 5830 5832 5833 5835 5837 5840 5841 5841 5841 5841 5841 5841 5840 5839 5839 5839 5839 5840 5840 5840 5840 5840 5839 5839 5839 5839 5839
5765 5770 5776 5782 5787 5789 5792 5796 5799 5801 5806 5813 5815 5814 5816 5818 5821 5823 5825 5828 5829 5830 5831 5833 5833 5832 5833 5832 5832 5831 5830 5829 5828 5827 5827 5827 5826 5827 5826 5826 5824 5825 5824 5826
5760 5765 5770 5774 5779 5781 5786 5791 5793 5798 5802 5803 5804 5808 5809 5812 5815 5817 5821 5822 5822 5824 5825 5825 5824 5823 5824 5824 5823 5822 5821 5820 5818 5817 5815 5814 5813 5812 5811 5811 5810 5810 5809 5809
5753 5758 5762 5767 5772 5777 5779 5785 5792 5794 5794 5795 5798 5799 5801 5805 5807 5812 5813 5815 5815 5816 5817 5818 5819 5817 5815 5815 5814 5813 5811 5810 5808 5806 5805 5802 5800 5797 5796 5795 5794 5793 5792 5791
5747 5751 5756 5762 5767 5771 5776 5779 5782 5786 5785 5788 5794 5794 5792 5794 5798 5806 5806 5808 5808 5809 5811 5810 5810 5810 5808 5806 5806 5805 5802 5800 5799 5796 5793 5791 5789 5786 5782 5780 5777 5775 5773 5773
5741 5747 5751 5756 5761 5767 5769 5774 5776 5777 5779 5786 5788 5785 5788 5790 5791 5796 5798 5801 5802 5802 5803 5804 5803 5803 5802 5800 5798 5797 5795 5792 5790 5787 5784 5781 5777 5773 5770 5766 5763 5760 5758 5754
5734 5740 5744 5749 5752 5758 5761 5764 5769 5772 5777 5779 5779 5779 5782 5784 5786 5788 5791 5793 5794 5795 5796 5796 5796 5795 5794 5793 5790 5788 5786 5784 5781 5778 5774 5771 5767 5763 5759 5755 5750 5746 5742 5739
5726 5730 5736 5740 5747 5752 5757 5761 5762 5764 5767 5770 5771 5775 5776 5781 5782 5783 5785 5787 5788 5789 5789 5789 5789 5788 5786 5784 5783 5781 5778 5775 5772 5769 5765 5761 5756 5752 5747 5743 5739 5734 5730 5725
5717 5723 5730 5733 5738 5742 5747 5753 5756 5760 5763 5762 5765 5768 5769 5773 5779 5779 5780 5782 5782 5782 5782 5782 5781 5781 5780 5777 5775 5772 5769 5767 5764 5760 5757 5752 5747 5742 5737 5732 5727 5722 5718 5713
5710 5714 5721 5730 5732 5735 5738 5743 5749 5752 5755 5757 5759 5760 5762 5766 5773 5774 5774 5776 5776 5776 5775 5775 5775 5773 5771 5768 5766 5764 5762 5759 5756 5752 5748 5744 5739 5734 5727 5721 5716 5712 5707 5701
5701 5705 5711 5717 5721 5723 5729 5735 5739 5743 5746 5751 5755 5755 5755 5760 5765 5767 5768 5769 5770 5769 5768 5767 5766 5764 5763 5761 5758 5756 5754 5750 5747 5743 5739 5734 5730 5725 5719 5713 5707 5701 5696 5691
5691 5695 5703 5710 5717 5721 5724 5728 5732 5737 5740 5745 5747 5749 5750 5755 5758 5760 5761 5761 5760 5761 5760 5759 5758 5756 5755 5753 5751 5748 5745 5742 5738 5734 5730 5725 5720 5715 5710 5704 5698 5692 5687 5681
5683 5689 5694 5699 5703 5708 5714 5721 5724 5729 5735 5737 5742 5744 5746 5748 5751 5753 5753 5752 5752 5751 5750 5751 5749 5749 5747 5745 5742 5739 5737 5733 5729 5725 5721 5716 5711 5706 5701 5695 5688 5681 5674 5668
5676 5681 5685 5690 5695 5703 5708 5712 5716 5720 5725 5729 5732 5736 5740 5743 5745 5746 5746 5745 5744 5744 5744 5743 5742 5740 5738 5736 5734 5731 5728 5724 5720 5716 5712 5707 5702 5696 5690 5684 5678 5672 5664 5656
5669 5674 5677 5683 5689 5694 5698 5703 5711 5716 5720 5724 5726 5730 5731 5735 5738 5739 5737 5736 5737 5737 5735 5734 5733 5731 5730 5728 5725 5722 5719 5715 5711 5707 5702 5698 5692 5687 5680 5674 5667 5661 5654 5645
5659 5665 5670 5676 5681 5684 5693 5698 5704 5709 5713 5717 5720 5721 5723 5725 5729 5730 5731 5730 5730 5728 5726 5726 5724 5722 5721 5719 5716 5713 5709 5706 5702 5698 5693 5688 5682 5676 5670 5663 5656 5649 5640 5631
5650 5655 5661 5666 5673 5678 5684 5691 5697 5702 5708 5710 5714 5717 5718 5720 5720 5721 5723 5722 5721 5720 5719 5718 5716 5714 5712 5709 5706 5703 5700 5697 5693 5688 5683 5678 5672 5666 5659 5652 5645 5636 5627 5617
5640 5645 5653 5658 5664 5669 5682 5687 5690 5694 5698 5703 5707 5709 5712 5714 5715 5717 5716 5715 5714 5713 5711 5710 5707 5705 5702 5700 5697 5694 5691 5687 5683 5678 5673 5667 5661 5654 5647 5639 5632 5623 5614 5604
5632 5636 5643 5649 5657 5664 5672 5679 5683 5686 5697 5697 5700 5703 5704 5706 5707 5708 5707 5706 5706 5704 5703 5701 5698 5696 5694 5691 5688 5685 5682 5677 5673 5668 5663 5657 5650 5644 5636 5628 5621 5613 5603 5593
5625 5628 5635 5642 5648 5656 5663 5672 5675 5685 5688 5690 5692 5694 5697 5699 5700 5700 5700 5700 5698 5697 5694 5692 5689 5687 5686 5683 5680 5677 5672 5668 5664 5659 5653 5647 5640 5633 5626 5618 5609 5601 5592 5582
5609 5615 5628 5638 5647 5654 5660 5669 5670 5676 5680 5682 5685 5687 5689 5691 5692 5693 5692 5692 5690 5687 5686 5683 5680 5678 5676 5673 5670 5667 5663 5659 5654 5649 5643 5636 5629 5621 5613 5606 5597 5589 5580 5570
5603 5611 5618 5626 5635 5641 5650 5658 5662 5667 5671 5674 5676 5678 5680 5682 5683 5683 5683 5684 5682 5679 5676 5672 5670 5667 5665 5663 5660 5657 5653 5649 5644 5639 5633 5627 5620 5612 5603 5594 5586 5576 5568 5558
5597 5603 5610 5618 5626 5633 5639 5646 5653 5657 5662 5666 5668 5669 5671 5672 5673 5673 5672 5672 5671 5669 5668 5665 5662 5659 5656 5653 5650 5647 5643 5638 5634 5628 5623 5616 5609 5601 5592 5582 5575 5565 5554 5545
5584 5593 5598 5609 5619 5627 5635 5639 5643 5649 5653 5656 5659 5661 5663 5664 5665 5665 5664 5665 5663 5661 5659 5656 5653 5650 5647 5644 5641 5637 5633 5628 5623 5618 5612 5606 5599 5592 5583 5575 5565 5553 5542 5532